RH
9 9 9 8 6 7 21 34 34 41 42 43 43 41 38 36 33 33 32 31 29 25 23 19 18 18 16 16 16 18 24 26 27 25 23 17 16 18 18 18 22 20 21 15 11
10 10 8 7 7 13 30 39 42 43 42 42 42 40 39 37 34 34 33 32 29 25 23 19 15 16 16 14 14 17 16 13 14 20 20 18 12 14 14 14 13 14 14 12 9
11 10 8 8 8 21 32 40 44 44 40 40 40 39 38 37 36 35 34 30 24 22 21 18 15 14 13 14 14 13 11 11 15 19 22 24 13 12 10 8 7 12 11 7 8
14 10 10 9 12 24 35 39 43 42 40 40 38 38 38 35 33 32 28 21 19 18 17 14 13 13 12 13 13 12 10 10 10 12 18 17 12 9 9 7 8 7 8 7 9
15 14 13 12 14 26 35 40 40 41 40 38 38 37 36 33 30 26 26 17 12 13 13 12 12 12 12 12 11 11 10 10 10 10 11 11 10 10 6 8 7 7 8 9 12
16 18 19 16 13 22 30 35 37 40 38 37 36 33 29 24 26 24 22 17 12 12 12 11 12 11 11 11 11 11 11 11 10 10 10 10 10 8 8 10 8 10 12 12 14
14 21 21 20 19 16 20 26 28 30 32 33 32 30 28 23 22 23 22 15 12 12 11 11 11 11 12 12 11 11 10 9 10 15 14 13 14 11 14 11 12 14 15 16 17
15 14 14 17 19 20 20 20 19 19 21 23 23 22 20 19 18 17 16 14 13 12 12 12 12 13 14 12 11 11 14 20 18 18 18 19 12 15 16 16 18 18 17 16 16
17 14 13 13 15 17 17 18 18 19 18 18 18 19 16 14 14 15 16 14 13 12 11 12 14 13 12 12 13 18 19 17 16 23 19 16 11 12 16 18 19 18 18 18 18
16 16 15 15 15 14 15 15 16 15 15 15 15 16 14 14 16 17 15 14 13 12 12 12 14 16 16 19 19 20 20 16 12 12 12 14 12 12 16 19 17 18 18 16 14
16 15 16 18 17 16 16 16 17 16 16 15 15 14 16 16 16 16 14 13 12 12 13 14 15 14 17 19 22 23 24 20 14 12 12 13 15 13 14 16 16 16 15 11 9
16 15 16 19 18 17 16 16 17 17 17 17 15 14 14 17 14 14 13 12 11 12 13 15 13 14 17 19 23 25 27 22 15 14 14 12 12 12 12 13 12 12 9 8 9
17 16 16 17 16 17 18 19 19 16 14 13 13 13 14 13 12 13 12 12 13 12 13 14 12 14 15 16 17 17 25 19 17 16 16 16 13 10 10 10 9 7 7 7 8
17 16 16 18 19 20 20 19 18 16 14 15 15 14 13 12 13 12 12 13 13 14 15 15 13 14 16 15 20 20 20 22 18 20 19 18 26 10 9 9 8 7 7 7 8
18 18 19 19 20 19 19 18 17 16 25 24 23 20 20 19 17 16 16 16 16 17 17 15 16 17 17 18 19 23 22 21 21 21 21 20 29 11 10 7 7 7 7 7 9
15 16 20 20 18 17 17 18 16 18 24 25 26 23 22 22 22 22 20 19 18 18 17 15 17 17 17 19 22 23 25 24 23 25 44 31 32 19 11 10 8 7 8 9 10
16 17 17 17 18 18 18 18 18 21 19 29 28 25 25 23 21 23 23 22 24 25 20 20 19 19 20 24 26 29 30 26 29 48 48 34 39 19 11 11 12 12 10 8 10
18 17 17 17 17 19 20 22 23 16 23 29 31 30 28 24 24 26 24 20 22 25 26 26 22 21 23 24 27 30 29 21 30 43 35 27 24 14 13 12 12 10 11 11 11
21 20 19 18 18 20 23 27 17 20 22 28 30 30 28 26 28 26 23 18 24 26 28 29 26 24 24 26 28 27 24 26 29 30 47 24 18 17 13 10 13 11 12 14 15
24 22 22 20 20 20 25 23 20 19 20 26 32 29 29 27 27 27 25 20 25 27 30 33 33 29 26 25 25 26 27 28 29 39 42 28 21 18 17 16 17 13 12 15 14
25 25 23 23 23 23 25 21 19 20 21 24 26 26 25 26 26 29 27 22 21 28 32 33 35 30 30 28 28 27 27 29 30 27 46 55 27 20 21 18 17 18 19 20 20
27 25 23 24 24 24 23 23 23 24 25 26 28 27 27 28 31 33 30 27 24 29 35 34 39 38 33 31 27 27 27 27 30 27 28 34 34 23 19 19 21 22 21 19 19
24 25 26 26 27 26 27 28 30 28 28 29 29 30 33 38 43 39 35 32 34 38 39 42 39 39 35 29 27 29 30 32 33 34 34 36 31 24 21 22 24 24 25 22 20
35 33 24 25 26 28 30 30 30 30 31 32 34 36 43 45 46 48 40 39 37 36 37 43 48 47 45 41 42 44 44 43 42 39 38 39 31 25 24 29 30 26 27 23 20
51 47 38 31 27 27 28 29 30 35 36 38 40 38 46 47 40 39 43 43 47 48 47 46 47 43 38 40 43 42 45 45 43 36 45 25 35 26 28 33 34 31 22 18 19
66 58 56 55 47 35 31 29 30 35 45 38 38 37 36 37 44 57 61 61 64 57 54 53 56 54 51 49 46 44 44 33 28 32 42 34 29 23 30 37 35 27 24 26 30
56 63 64 62 58 58 53 45 38 33 34 34 36 38 36 41 53 58 60 59 59 62 60 60 57 59 59 56 57 59 38 30 34 34 33 34 30 31 34 42 42 33 42 45 46
Wind_Speed
7 7 7 8 12 18 24 25 24 23 21 20 17 15 15 14 12 9 6 4 4 5 6 7 7 8 8 10 14 20 23 26 25 24 22 18 16 14 16 18 18 18 17 17 17
6 7 8 11 16 23 26 25 24 22 20 18 16 14 13 13 11 8 7 8 8 9 10 9 8 8 11 11 14 17 20 19 17 15 15 16 16 15 16 17 18 17 16 17 17
5 8 11 15 19 25 25 24 23 21 20 18 15 14 13 13 11 9 10 11 11 12 13 12 12 11 12 13 14 18 20 17 18 18 18 19 18 19 18 18 12 12 18 18 16
6 9 11 14 20 24 25 24 22 20 19 17 16 15 14 12 6 7 10 11 13 13 13 14 14 15 14 14 14 17 17 18 19 20 20 21 20 21 21 13 17 18 19 17 15
7 10 12 14 18 23 24 23 22 20 18 16 15 15 14 14 13 11 13 13 12 12 13 14 14 14 15 14 13 16 16 17 18 19 20 21 20 21 15 14 19 17 18 17 17
10 12 13 13 15 20 22 22 21 20 18 17 16 16 14 13 13 14 13 14 12 12 13 14 14 13 14 14 16 17 17 17 17 17 19 20 20 22 9 15 17 16 17 18 18
10 11 11 12 12 14 18 20 19 19 19 18 17 17 17 15 14 13 14 16 14 13 13 12 11 13 14 15 15 15 16 16 15 15 19 18 23 17 10 16 16 17 18 21 20
10 9 10 11 12 12 13 14 15 15 16 16 17 17 18 14 15 16 15 16 14 13 12 11 12 14 15 16 17 16 16 15 13 13 17 21 28 16 19 17 18 20 21 20 20
7 9 10 10 11 12 11 12 12 13 13 14 15 15 16 15 14 14 14 13 14 12 12 13 14 15 15 15 15 13 15 18 19 17 20 22 32 18 18 23 25 24 22 21 19
10 11 10 11 11 10 10 9 11 11 12 13 14 13 14 13 12 12 13 13 13 12 13 14 17 18 15 13 13 14 21 22 22 21 25 30 34 26 24 29 27 25 23 20 18
12 11 11 10 11 10 10 9 10 12 13 14 13 9 14 14 12 13 13 12 12 13 15 16 18 19 15 17 18 21 22 25 23 23 29 31 36 31 24 29 30 22 21 19 17
9 10 12 11 9 9 8 9 10 11 12 13 15 16 16 16 16 14 12 12 13 14 16 18 22 17 19 19 20 22 24 26 26 22 29 32 39 34 28 29 25 21 22 19 19
9 10 9 8 9 8 7 7 8 9 11 12 12 13 13 13 12 11 12 13 15 17 18 21 19 21 21 22 22 22 24 25 26 27 29 32 40 27 15 20 18 21 20 21 21
8 8 8 7 7 6 6 6 7 9 8 6 7 10 10 10 13 12 13 15 17 17 16 15 13 13 15 17 18 22 21 21 22 22 14 24 18 43 20 16 19 21 22 20 20
6 6 5 5 5 5 6 6 7 5 4 2 6 5 4 6 9 9 11 13 15 16 17 16 20 21 23 23 21 23 24 22 22 24 27 25 11 27 31 22 18 21 24 20 20
7 6 5 5 5 5 6 6 6 3 5 3 4 3 4 6 9 12 12 13 15 18 20 21 21 21 20 21 21 21 22 23 24 21 7 8 11 18 22 15 12 12 18 24 23
8 8 8 7 7 7 7 6 4 6 3 3 5 5 7 11 11 9 9 11 12 13 14 17 20 20 18 18 18 17 18 8 4 1 5 9 9 19 25 14 20 22 22 23 25
10 10 10 9 9 8 8 8 7 5 6 6 6 9 12 12 10 8 11 13 12 13 17 10 7 7 7 10 11 14 11 6 5 3 7 20 11 16 31 31 26 25 23 24 24
12 12 11 11 11 10 11 11 5 4 7 8 11 13 11 6 7 12 12 16 7 6 5 6 5 12 22 22 15 8 9 10 8 16 5 9 18 28 13 6 28 20 13 16 22
13 13 13 13 13 13 15 18 11 8 12 12 12 9 10 10 9 11 14 12 10 10 12 11 15 15 12 14 16 16 16 9 5 4 6 8 21 25 13 25 28 22 24 34 26
13 14 14 14 15 16 20 20 18 17 18 17 18 17 19 19 19 16 10 15 18 11 10 13 15 16 21 22 20 18 19 14 8 11 4 4 7 25 37 26 28 32 31 42 48
14 14 14 14 16 19 21 20 19 18 16 16 19 19 20 19 20 19 17 14 17 20 19 19 17 23 26 23 19 20 19 18 9 9 13 21 31 26 28 39 52 49 41 34 31
16 16 16 16 17 18 19 18 17 18 16 17 17 15 15 15 12 8 10 11 12 14 9 14 9 12 11 10 8 10 13 16 23 27 31 17 26 31 52 49 45 39 36 35 32
18 16 17 18 20 20 19 19 18 20 19 18 18 18 18 18 17 14 16 15 20 22 25 25 24 26 25 29 33 35 33 31 31 27 38 37 59 55 49 44 36 33 38 38 37
20 20 21 16 14 16 18 18 17 15 15 13 13 13 14 19 21 22 21 22 19 16 21 21 30 32 38 35 34 38 37 33 38 43 34 57 52 43 37 35 39 37 37 37 33
24 23 22 22 22 22 22 23 22 19 19 21 23 22 23 24 21 25 24 21 23 24 25 28 31 34 45 39 36 39 35 38 40 40 40 37 41 39 38 33 36 34 31 15 13
23 24 24 26 25 25 26 25 26 26 25 25 24 25 24 23 22 23 25 28 31 31 31 35 37 38 45 33 23 25 35 29 28 24 24 33 37 37 27 25 20 16 23 28 33
Wind_Direction
172 194 192 184 178 171 163 160 162 164 164 164 167 167 170 171 174 179 190 228 256 276 286 283 268 274 278 263 256 250 253 258 264 270 276 284 275 268 259 257 253 255 263 268 271
186 192 184 174 171 167 167 167 168 171 171 172 176 177 182 184 193 205 229 255 267 276 280 282 278 265 268 270 266 257 257 267 271 275 273 277 278 266 261 260 257 260 264 262 261
187 189 177 165 165 169 173 173 176 177 179 181 186 188 191 198 212 232 253 270 272 282 282 280 284 284 279 272 266 268 265 267 270 275 273 274 275 273 271 268 277 258 249 255 261
177 174 161 162 168 173 179 180 184 185 189 193 198 204 211 216 242 255 263 277 277 276 278 281 283 285 283 276 272 272 271 271 274 272 271 273 272 275 269 275 256 254 254 258 260
172 164 165 166 171 179 185 188 192 195 199 204 213 222 228 235 244 267 281 297 283 272 275 279 282 283 283 281 280 276 274 272 274 275 274 274 275 273 281 267 256 258 257 258 256
182 175 163 166 173 184 193 198 202 206 210 217 228 237 244 250 266 274 282 297 288 282 279 280 282 279 278 282 281 282 280 279 276 274 273 273 274 275 296 269 264 259 257 256 258
190 178 171 173 171 182 197 207 213 219 225 231 238 247 258 263 265 273 285 294 287 286 283 283 282 280 284 288 285 286 284 284 283 282 277 276 275 290 267 272 268 267 262 262 263
194 177 186 187 185 190 198 205 215 225 234 242 249 256 263 265 269 276 282 287 283 283 279 280 283 285 286 286 287 290 290 294 296 292 288 280 282 300 282 276 281 272 269 264 258
188 199 197 194 197 201 205 214 223 233 240 248 255 263 273 272 272 275 282 281 278 274 272 282 288 289 289 289 288 290 291 297 300 292 295 285 287 294 287 285 282 274 265 256 247
204 211 206 207 209 211 215 221 232 238 244 250 258 262 262 268 271 275 281 275 273 272 279 285 287 287 292 290 285 294 299 301 299 301 297 292 292 292 288 283 274 263 256 246 237
218 215 216 217 217 221 227 233 241 250 251 254 256 257 260 267 267 278 276 269 268 272 281 286 285 287 292 283 283 289 290 296 305 299 295 300 298 297 291 276 267 254 244 235 234
215 216 216 217 220 227 234 243 253 262 268 266 263 263 264 270 277 273 269 266 271 277 282 284 286 289 277 280 283 285 286 295 304 302 299 302 300 303 295 265 258 240 233 234 235
215 221 218 216 221 227 235 253 259 285 287 272 265 262 264 270 275 265 265 272 278 281 285 281 286 284 281 283 287 287 288 300 299 302 300 306 305 307 308 273 255 241 245 244 245
210 206 207 209 215 231 248 242 271 292 296 278 266 251 259 268 274 272 273 276 281 284 288 289 290 290 290 293 296 292 294 297 299 301 299 305 298 304 312 278 258 251 253 253 252
201 208 210 226 244 247 245 253 282 297 344 279 236 243 269 276 283 289 286 283 284 284 282 280 289 291 292 295 294 290 295 297 297 295 294 292 263 293 301 294 283 272 263 263 260
222 223 230 238 244 244 249 259 282 304 256 243 235 246 274 294 300 294 291 286 290 285 282 289 287 286 288 291 290 290 295 298 291 283 274 288 230 294 314 327 303 311 265 258 265
233 231 236 237 238 237 239 247 258 230 280 260 255 248 292 307 309 303 298 299 291 298 296 299 298 290 291 290 291 292 291 306 316 321 239 305 273 279 310 318 306 297 298 262 259
243 240 240 241 238 237 238 235 233 246 250 271 268 276 291 305 301 297 306 312 303 288 289 303 315 325 316 314 297 292 281 254 273 258 282 299 260 287 307 310 318 308 301 261 282
244 246 245 245 244 242 239 229 242 271 271 266 278 287 290 287 279 300 306 312 306 316 277 300 273 299 301 298 294 291 266 281 271 277 302 259 279 305 356 356 331 328 292 291 304
248 250 249 248 248 246 244 244 242 259 271 274 275 278 275 284 289 298 304 294 303 313 306 279 289 293 290 299 297 277 279 278 266 304 289 281 294 293 348 323 315 308 297 316 324
251 253 251 250 250 249 247 255 264 265 269 268 270 270 275 281 285 288 272 288 292 294 308 302 282 283 292 296 300 288 272 265 263 260 242 291 260 296 306 323 328 320 314 305 304
253 253 255 253 250 251 257 264 269 269 268 267 270 273 277 284 287 287 281 284 282 287 297 294 282 279 292 290 284 278 278 275 254 262 254 280 283 302 318 315 318 325 325 318 308
257 257 256 254 250 255 261 265 267 269 268 268 267 272 280 284 292 286 289 290 283 282 293 301 281 301 298 282 289 311 311 306 302 282 273 269 278 297 312 319 325 325 326 322 319
257 257 257 259 260 259 260 263 263 269 272 270 273 276 280 281 280 276 281 286 289 281 280 287 276 269 264 278 293 293 291 293 290 275 284 269 289 309 319 322 324 320 315 307 305
259 260 258 257 259 261 262 262 266 265 267 271 271 279 284 285 288 285 287 289 291 281 285 285 282 286 286 288 289 289 287 289 280 280 263 294 290 309 329 328 316 323 319 310 303
257 258 259 260 259 259 261 265 266 261 264 271 275 272 272 275 276 279 283 286 289 292 292 291 288 294 292 298 296 289 289 289 288 287 281 294 301 316 322 319 324 325 314 312 321
258 258 259 261 261 262 265 267 269 272 273 273 275 277 277 278 272 270 273 279 283 284 285 283 285 287 285 295 292 287 289 297 291 287 296 296 305 313 312 305 338 319 333 337 334